星链-36528(STARLINK-36528)

导读 | 豆包AI

STARLINK-36528是美国SpaceX公司星链互联网星座计划中的一颗卫星,于2026年1月14日发射入轨。星链项目旨在构建全球卫星互联网,为全球偏远、网络覆盖薄弱地区提供高速低延迟网络服务,该卫星加入后将进一步扩容星链星座,提升星座的全球服务能力与覆盖范围。

基本信息
目录编号:
67458
目录名称:
STARLINK-36528
国际标识:
2026-008P
轨道中心:
EARTH
卫星名称:
星链-36528
卫星全名:
星链-36528(STARLINK-36528)
卫星状态:
在轨 (已飞行131 天)
发射日期:
2026-01-14 UTC
国别 :
美国 (US)
星等 :
--
轨道信息
数据来源 国际轨道数据
星历时间: 2026-05-24T07:52:51+0800
1天前
查看轨道信息
半长轴: 6861.186km
偏心率: 0.000145
轨道倾角: 43.002°
近地点辐角 269.526°
升交点赤经 139.544°
平近点角 90.543°
近地点: 482.054km
远地点: 484.044km
周期: 94.267分钟
每日圈数: 15.275802
详细信息
固有亮度:
5
最大亮度:
2.5
卫星平台:
Starlink V1.0
覆盖范围:
全球
运营商:
太空探索技术公司
运营商所在国:
美国
制造商(研发单位):
太空探索技术公司
制造商所在国:
美国
使用方式:
暂无
卫星简介
Starlink 计划是 SpaceX 推出的全球卫星互联网项目,通过发射低轨道卫星,为全球尤其是偏远地区提供高速、低延迟的互联网服务。自 2019 年起,Starlink 已部署数千颗卫星,旨在缩小全球数字鸿沟,推动互联网普及。该项目还为军事、航空等行业提供通信支持,带来广泛经济效益。
2D轨道图
3D轨道图
轨道高度分析图
轨道倾角分析图
轨道综合分析图
查看轨道综合分析图